STARLINK-30052 (57611 NORAD) Tracking and Keplerian Element Data

This shows tracking and keplerian element data for the satellite.

Feedback or suggestion? Click here.




ElementValue
Catalog57611
NameSTARLINK-30052
Epoch Orbit2477
Epoch Day13.16681489
Epoch Year2024
RAAN35.2479
Inclination43.0032
Eccentricity8.91E-05
Argument of Perigee235.6104
Mean Anonmoly124.4655
Mean Motion15.02528015
Decay Rate0.00019262
L11 57611U 23119K 24013.16681489 .00019262 00000+0 14374-2 0 9999
L22 57611 43.0032 35.2479 0000891 235.6104 124.4655 15.02528015 24779



Live tracking and technical data element details for STARLINK-30052 (NORAD 57611). STARLINK-30052 can be tracked NOW for your location showing map with azimuth and elevation plus other details from your city location.







IsCatalogInMostPopularTable: catalog: 57611, numindb: 23
Update: records affected: 1



GetName: 57611 STARLINK-30052

Hit Count: updated at: Thu, 29 Feb 2024 12:00:00 GMT